Regional Weather Roundup
Issued by NWS

Home | Current Version | Previous Version | Graphics & Text | Print | Product List | Glossary On
Versions: 1 2 3 4 5 6 7 8 9 10 11 12 13 14 15 16 17 18 19 20 21 22 23 24 25 26 27
000
ASUS45 KBOU 171410
RWRCO

WEATHER ROUNDUP FOR COLORADO
NATIONAL WEATHER SERVICE DENVER/BOULDER CO
700 AM MST FRI NOV 17 2017

NOTE: "FAIR" INDICATES FEW OR NO CLOUDS BELOW 12000 FEET WITH NO
SIGNIFICANT WEATHER AND/OR OBSTRUCTIONS TO VISIBILITY.

COZ001>005-013-030-031-171500-
...NORTHWEST COLORADO...

CITY           SKY/WX    TMP DP  RH WIND       PRES   REMARKS
CRAIG          CLOUDY    53  28  38 SW22G33   29.72S
HAYDEN         CLOUDY    51  29  42 SW17G30   29.73S
MEEKER         FAIR      53  30  41 SW22G35   29.75F
RABBIT EARS PA CLOUDY    32  28  86 W12G33    29.84R WCI  23
STEAMBOAT SPGS CLOUDY    50  28  43 SW10G22   29.74S
WALDEN         CLOUDY    39  28  65 SW18G29   29.78R
$$

COZ006>008-011-171500-
...WEST CENTRAL VALLEYS...

CITY           SKY/WX    TMP DP  RH WIND       PRES   REMARKS
GRAND JUNCTION FAIR      56  33  42 VRB5      29.78S
MONTROSE       FAIR      55  31  39 SW18G28   29.89S
EAGLE          LGT RAIN  49  34  56 SW17      29.83R
RIFLE          CLOUDY    56  29  35 SW12      29.79R
DELTA          CLOUDY    60  30  32 SW8G16    29.85S
NUCLA          FAIR      55  30  38 SW25G38   29.93F
$$

COZ017>023-064>068-171500-
...SOUTHWEST COLORADO...

CITY           SKY/WX    TMP DP  RH WIND       PRES   REMARKS
DURANGO        FAIR      44  27  51 CALM      30.02S
CORTEZ         FAIR      51  31  46 SW10      29.99S
PAGOSA SPRINGS CLOUDY    45  31  57 SW5       30.05S
TELLURIDE      CLOUDY    45  28  52 SW23G39   30.06R
WOLF CREEK PAS CLOUDY    27  27 100 SW25G37   30.15S WCI  11
$$

COZ009-010-012-014-032>034-037-058>063-171500-
...CENTRAL COLORADO...

CITY           SKY/WX    TMP DP  RH WIND       PRES   REMARKS
ASPEN          LGT RAIN  41  36  82 SE12      29.87S
BUENA VISTA    RAIN      39  36  89 SE18      29.88F
COPPER MTN     LGT SNOW  34  30  86 MISG      29.96S VSB 3/4
BERTHOUD PASS  LGT SNOW  23  12  63 W36G46    29.92S VSB 1   WCI   4
COTTONWOOD PAS LGT SNOW  39  37  93 W5        29.92F
GUNNISON       MOCLDY    49  29  46 W25G31    29.91S
KREMMLING      DRIZZLE   46  34  61 SW17G28   29.83R
LEADVILLE      LGT SNOW  32  30  92 NE3       29.90F VSB 3/4
MONARCH PASS     N/A     30  28  93 SW53G64   29.99F WCI  11
SALIDA         CLOUDY    44  38  80 SW7       29.96F
SUNLIGHT       LGT SNOW  32  27  80 SW24G48   29.95S WCI  19
WILKERSON PASS SNOW      30  28  93 S13G25    29.97S VSB 1/2 WCI  20
$$

COZ069>075-171500-
...SAN LUIS VALLEY/SANGRE DE CRISTO MOUNTAINS...

CITY           SKY/WX    TMP DP  RH WIND       PRES   REMARKS
ALAMOSA        FAIR      42  31  64 S12G18    29.96S
DEL NORTE      FAIR      46  27  46 SW24G30   29.96S
LA VETA PASS   CLOUDY    34  28  80 S28G45      N/A  WCI  20
SAGUACHE       CLOUDY    36  30  80 SE5       29.95S
$$

COZ035-036-038>040-171500-
...NORTHERN COLORADO FRONT RANGE...

CITY           SKY/WX    TMP DP  RH WIND       PRES   REMARKS
DENVER INTL AP MOCLDY    54  29  38 SW22      29.68R
DMNS CITY PARK   N/A     54  29  38 SE7G16    29.70S
AURORA         MOCLDY    53  32  45 SW20      29.71R
FRONT RANGE AP MOCLDY    55  32  41 SW17      29.69R
ERIE MUNI ARPT FAIR      49  29  45 SW6       29.74R
BOULDER MUN AP FAIR      55  28  35 SW6       29.69R
CENTENNIAL     MOCLDY    53  33  46 SW22      29.73R
BROOMFIELD     MOCLDY    55  28  35 S12       29.71R
FORT COLLINS   FAIR      55  32  41 SW16      29.66R
LONGMONT       FAIR      57  33  40 W15G21    29.70R
$$

COZ041-046-047-076>085-087-088-171500-
...PIKES PEAK/PALMER DIVIDE AND SOUTHERN FOOTHILLS...

CITY           SKY/WX    TMP DP  RH WIND       PRES   REMARKS
COLO. SPRINGS  FAIR      54  32  43 W18       29.81R
A. F. ACADEMY  FAIR      54  29  39 SW26G33   29.79S
SCHRIEVER AFB  FAIR      54  30  40 W31G41    29.78R
CHEYENNE MTN   FAIR      50  31  49 SE16G26   29.76S
ELLICOTT         N/A    N/A N/A N/A W13G23    29.78S
FALCON         FAIR      48  28  46 SW10      29.82R
FORT CARSON    FAIR      54  32  43 SW15      29.78S
LIMON          FAIR      55  30  38 W16G25    29.68S
MONUMENT HILL  FAIR      45  32  61 W17G25    29.81R
CANON CITY     FAIR      48  34  57 NW9       29.79S
WALSENBURG     FAIR      55  32  41 W23G35    29.87F
TRINIDAD       FAIR      59  28  30 W30G41    29.81S
$$

COZ042>045-048>051-090-091-171500-
...NORTHEAST COLORADO...

CITY           SKY/WX    TMP DP  RH WIND       PRES   REMARKS
GREELEY ARPT   FAIR      52  31  44 W6        29.67R
AKRON          FAIR      53  27  36 SW13      29.64R
BURLINGTON     FAIR      52  30  43 SW14      29.67R
WRAY           NOT AVBL
YUMA           FAIR      43  30  61 SW7       29.63R
STERLING       FAIR      36  28  75 NW5       29.62R
HOLYOKE        FAIR      41  32  70 W5        29.61S
FORT MORGAN    FAIR      42  28  57 CALM      29.65R
$$

COZ086-089-092>099-171500-
...SOUTHEAST COLORADO...

CITY           SKY/WX    TMP DP  RH WIND       PRES   REMARKS
PUEBLO         FAIR      51  29  42 MISG      29.76R
LA JUNTA       FAIR      61  33  35 W24G33    29.71F
LAMAR          FAIR      47  28  47 S6        29.69S
SPRINGFIELD      N/A     49  30  48 SW10      29.77S
$$




USA.gov is the U.S. government's official web portal to all federal, state and local government web resources and services.